Regional Weather Roundup
Issued by NWS

Home | Current Version | Previous Version | Graphics & Text | Print | Product List | Glossary Off
Versions: 1 2 3 4 5 6 7 8 9 10 11 12 13 14 15 16 17 18 19 20 21 22 23 24 25 26 27 28 29 30 31 32 33 34 35 36 37 38 39 40 41 42 43 44 45 46 47 48 49 50

000
ASUS43 KDMX 171206
RWRIA

WEATHER ROUNDUP FOR IOWA
NATIONAL WEATHER SERVICE DES MOINES IA
600 AM CST FRI NOV 17 2017

NOTE: "FAIR" INDICATES FEW OR NO CLOUDS BELOW 12,000 FEET WITH NO
SIGNIFICANT WEATHER AND/OR OBSTRUCTIONS TO VISIBILITY.

* - THESE STATIONS ARE NOT NWS STATIONS...THUS NOT UNDER NWS
QUALITY CONTROL.  THEY ALSO DO NOT REPORT WEATHER SUCH
AS PRECIPITATION OR FOG.

IAZ001>003-012>014-020>022-031>034-043>046-171300-
   NORTHWEST IOWA

CITY           SKY/WX    TMP DP  RH WIND       PRES   REMARKS
CARROLL *      CLOUDY    45  37  76 S17G24    29.71F
CHEROKEE *     CLOUDY    45  37  71 S9        29.67S
DENISON *      CLOUDY    48  37  66 S18G26    29.68F
LE MARS *      CLOUDY    48  39  71 S18       29.63S
ORANGE CITY *  CLOUDY    46  37  71 S13       29.62F
SHELDON *      CLOUDY    45  36  70 S13G21    29.61F
SIOUX CITY     CLOUDY    45  35  68 SE10      29.64F
6HR MIN TEMP:  38; 6HR MAX TEMP:  45;

SPENCER        CLOUDY    40  31  70 S16G22    29.67F WCI  31
6HR MIN TEMP:  34; 6HR MAX TEMP:  40;

STORM LAKE *   CLOUDY    45  36  70 S22       29.68S
$$

IAZ055>058-069>071-079>083-090>094-171300-
   SOUTHWEST IOWA

CITY           SKY/WX    TMP DP  RH WIND       PRES   REMARKS
ATLANTIC *     CLOUDY    48  39  71 S13G21    29.72F
AUDUBON *      CLOUDY    45  37  76 SE6       29.73F
CLARINDA *     CLOUDY    48  39  71 S9          N/A
COUNCIL BLFS * CLOUDY    48  43  81 S12       29.68F
CRESTON *      CLOUDY    45  36  70 SE14      29.78S
HARLAN  *      CLOUDY    48  39  71 S13       29.73F
LAMONI         CLOUDY    45  35  68 SE10G20   29.81F
6HR MIN TEMP:  39; 6HR MAX TEMP:  45;

RED OAK *      CLOUDY    50  41  71 S12G22    29.72F
SHENANDOAH *   CLOUDY    52  45  76 S13       29.72F
$$

IAZ047>049-059>061-072>074-084-171300-
   CENTRAL IOWA

CITY           SKY/WX    TMP DP  RH WIND       PRES   REMARKS
AMES           CLOUDY    38  33  82 SE14      29.81F WCI  30
6HR MIN TEMP:  32; 6HR MAX TEMP:  38;

ANKENY *       CLOUDY    41  32  70 SE12G18   29.82F
BOONE *        CLOUDY    37  32  81 SE17      29.78F WCI  28
CHARITON *     CLOUDY    43  36  75 SE15      29.82F
DES MOINES     CLOUDY    43  32  65 SE10      29.81F
6HR MIN TEMP:  35; 6HR MAX TEMP:  44;

GRINNELL*      CLOUDY    35  32  88 SE14      29.88F WCI  26
KNOXVILLE *    CLOUDY    39  32  75 SE14      29.84F WCI  31
MARSHALLTOWN   CLOUDY    36  32  85 SE21G26   29.85F WCI  25
6HR MIN TEMP:  31; 6HR MAX TEMP:  36;

NEWTON *       CLOUDY    36  34  93 SE17G24   29.85F WCI  25
PELLA *        CLOUDY    38  32  80 SE10G17   29.88F WCI  30
PERRY *        CLOUDY    42  33  70 SE14      29.77F
$$

IAZ004>006-015-016-023>025-035-036-171300-
   NORTH CENTRAL IOWA

CITY           SKY/WX    TMP DP  RH WIND       PRES   REMARKS
ALGONA *       CLOUDY    37  34  87 S23G30    29.71F WCI  26
CLARION *      CLOUDY    37  36  93 SE24G32   29.75F WCI  26
ESTHERVILLE    CLOUDY    38  32  79 S21G30    29.66F WCI  28
6HR MIN TEMP:  32; 6HR MAX TEMP:  38;

FORT DODGE *   CLOUDY    40  32  73 S16G23    29.74F WCI  31
MASON CITY     CLOUDY    34  30  85 S23G32    29.78F WCI  22
6HR MIN TEMP:  32; 6HR MAX TEMP:  34;

FOREST CITY *  CLOUDY    34  32  93 SE18G24   29.76F WCI  23
WEBSTER CITY * CLOUDY    37  32  81 SE24G33   29.73F WCI  26
IOWA FALLS *     N/A     36  32  86 SE18G28   29.82F WCI  25
$$

IAZ007>011-017>019-026>030-037>042-050>054-066-171300-
   NORTHEAST IOWA

CITY           SKY/WX    TMP DP  RH WIND       PRES   REMARKS
CEDAR RAPIDS   CLOUDY    34  31  88 SE18      29.92F WCI  23
6HR MIN TEMP:  31; 6HR MAX TEMP:  34;

CHARLES CITY * CLOUDY    34  34 100 SE23G32   29.83F WCI  22
CLINTON *      CLOUDY    32  30  92 SE13      30.03F WCI  22
DECORAH *      CLOUDY    34  30  86 SE18G26   29.85F WCI  23
DUBUQUE        CLOUDY    32  29  88 S15G23    29.99F WCI  22
6HR MIN TEMP:  31; 6HR MAX TEMP:  32;

MONTICELLO *   CLOUDY    34  30  86 SE15G22   29.97F WCI  24
OELWEIN *      CLOUDY    34  34 100 SE21G29   29.89F WCI  22
WATERLOO       CLOUDY    35  30  82 SE21      29.87F WCI  24
6HR MIN TEMP:  32; 6HR MAX TEMP:  35;

$$

IAZ064-065-067-068-078-171300-
   EAST CENTRAL IOWA

CITY           SKY/WX    TMP DP  RH WIND       PRES   REMARKS
DAVENPORT      CLOUDY    34  29  82 SE14G23   30.03F WCI  25
6HR MIN TEMP:  32; 6HR MAX TEMP:  34;

IOWA CITY      CLOUDY    35  31  85 SE12      29.97F WCI  27
6HR MIN TEMP:  32; 6HR MAX TEMP:  36;

MT. PLEASANT * CLOUDY    35  32  88 SE15      29.96S WCI  25
MUSCATINE *    CLOUDY    36  30  80 SE12G20   29.99F WCI  27
QUAD CITIES    CLOUDY    35  29  78 SE9       30.02F WCI  28
6HR MIN TEMP:  32; 6HR MAX TEMP:  35;

$$

IAZ062-063-075>077-085>089-095>099-171300-
   SOUTHEAST IOWA

CITY           SKY/WX    TMP DP  RH WIND       PRES   REMARKS
BURLINGTON     CLOUDY    35  32  88 SE12      29.97F WCI  27
6HR MIN TEMP:  31; 6HR MAX TEMP:  35;

FAIRFIELD *    CLOUDY    36  32  87 SE13      29.92F WCI  27
FORT MADISON * CLOUDY    36  32  87 SE10G17   29.97F WCI  28
KEOKUK *       CLOUDY    36  32  87 SE10G21   29.95F WCI  28
OSKALOOSA *    LGT RAIN  35  33  90 SE13      29.90F WCI  27
OTTUMWA        LGT RAIN  38  33  82 SE15      29.89F WCI  29
6HR MIN TEMP:  33; 6HR MAX TEMP:  38; 6HR PCP: TRACE;

WASHINGTON *   CLOUDY    36  34  93 SE15G23   29.95F WCI  26
$$

ABBREVIATIONS USED IN REMARKS
   TC - TEMPERATURES IN CELSIUS
  WCI - WIND CHILL INDEX
   HX - HEAT INDEX
  VSB - VISIBILITY
$$




USA.gov is the U.S. government's official web portal to all federal, state and local government web resources and services.